ARIRANG-2 (KOMPSAT-2)

Last updated on Wed Sep 17 2025 00:02:30 GMT+0000 (Coordinated Universal Time)

1 29268U 06031A 25259.60107828 .00000308 00000+0 66763-4 0 9994 2 29268 97.8336 92.2991 0013583 217.5286 235.4665 14.64374164 21439
UTC large
Height (km)
Speed (km/s)
/
Latitude / Longitude
Inclination (degrees)
Orbital Period (minutes)
Azimuth
Elevation
Range (km)
Doppler Factor

Next 0 passes for location: London (51.5072 / 0.1276)

Sorry there are no passes over London.